KINEIS-5D

Last updated on Thu Oct 23 2025 00:02:50 GMT+0000 (Coordinated Universal Time)

1 62082U 24219B 25295.50086507 .00001580 00000+0 25777-3 0 9994 2 62082 97.9840 94.4464 0002599 57.9305 302.2155 14.72288236 48780
UTC large
Height (km)
Speed (km/s)
/
Latitude / Longitude
Inclination (degrees)
Orbital Period (minutes)
Azimuth
Elevation
Range (km)
Doppler Factor

Next 0 passes for location: London (51.5072 / 0.1276)

Sorry there are no passes over London.